Meteo Giornale » Osservazioni meteo Gran Bretagna » Londra City AP

ore: 15:50 - Osservazioni Meteo Londra City AP
Lat. 51° 30' N Lon. 0° 30' W Alt. 5 metri s.l.m.

foschia Europe/London

5 °C

Foschia

Temp. 24 Ore

-3 °C

6 °C

Nord

5.5 Km/h

Dew point 2 °C

Umidità 80 %

Visibilità  5 Km

Il sole sorge alle ore 07:50

Il sole tramonta alle ore 16:36

Data e Ora Cielo e Fenomeni T °C DP °C Um. % Pres. hPa Vis. km Vento km/h
Oggi h: 15:50 foschia Foschia 5 2 80 1026 5 N 5.5
Oggi h: 15:20 foschia Foschia 5 2 80 1027 5 N 5.5
Oggi h: 14:50 foschia Foschia 6 2 75 1027 5 E 7.4
Oggi h: 14:20 foschia Foschia 6 1 70 1027 5 E 7.4
Oggi h: 13:50 sereno Sereno 5 1 75 1027 6 N 5.5
Oggi h: 13:20 sereno Sereno 5 1 75 1027 6 N 5.5
Oggi h: 12:50 sereno Sereno 5 0 70 1027 6 N 1.8
Oggi h: 12:20 foschia Foschia 4 0 75 1027 5 N 5.5
Oggi h: 11:50 foschia Foschia 3 -0 80 1028 5 N 5.5
Oggi h: 11:20 foschia Foschia 2 -1 80 1028 4 E 7.4
Oggi h: 10:50 foschia Foschia 1 -1 86 1028 4 E 9.3
Oggi h: 10:20 foschia Foschia 0 -1 92 1028 3 E 7.4
Oggi h: 09:50 foschia Foschia -0 -2 86 1027 3 N 1.8
Oggi h: 09:20 foschia Foschia -1 -2 92 1027 3 N 5.5
Oggi h: 08:50 foschia Foschia -2 -3 92 1027 2 N 9.3
Oggi h: 08:20 foschia Foschia -2 -3 92 1027 2 N 5.5
Oggi h: 07:50 foschia Foschia -2 -3 92 1027 3 NE 7.4
Oggi h: 07:20 foschia Foschia -2 -3 92 1026 3 N 5.5
Oggi h: 06:50 foschia Foschia -3 -3 100 1026 2 N 5.5
Oggi h: 06:20 foschia Foschia -2 -3 92 1026 3 N 5.5
Oggi h: 05:50 foschia Foschia -2 -3 92 1026 3 N 5.5
Oggi h: 05:20 foschia Foschia -2 -3 92 1026 3 N 5.5
Oggi h: 04:50 foschia Foschia -2 -3 92 1026 3 N 5.5
Oggi h: 04:20 foschia Foschia -2 -3 92 1026 3 N 5.5
Oggi h: 03:50 foschia Foschia -1 -2 92 1026 4 N 5.5
Oggi h: 03:20 foschia Foschia -1 -3 86 1026 5 N 5.5
Oggi h: 02:50 sereno Sereno -0 -3 80 1026 6 N 3.7
Oggi h: 02:20 sereno Sereno 0 -3 80 1027 6 N 5.5
Oggi h: 01:50 foschia Foschia -0 -3 80 1026 5 N 5.5
Oggi h: 01:20 sereno Sereno 0 -3 80 1027 6 N 3.7
Oggi h: 00:50 sereno Sereno 1 -3 74 1027 7 N 5.5
Oggi h: 00:20 sereno Sereno 0 -3 80 1027 7 O/SO 7.4
Ieri h: 23:50 sereno Sereno -0 -3 80 1027 7 N 5.5
Ieri h: 23:20 sereno Sereno 0 -3 80 1027 6 N 5.5
Ieri h: 22:50 sereno Sereno -0 -3 80 1027 7 N 5.5
Ieri h: 22:20 sereno Sereno -0 -3 80 1027 6 N 3.7
Ieri h: 21:50 sereno Sereno 0 -3 80 1027 6 N 5.5
Ieri h: 21:20 sereno Sereno 0 -3 80 1026 7 N 5.5
Ieri h: 20:50 sereno Sereno 0 -3 80 1026 7 N 3.7
Ieri h: 20:20 sereno Sereno 1 -3 74 1026 7 N 5.5
Ieri h: 19:50 sereno Sereno 1 -3 74 1026 8 S 7.4
Ieri h: 19:20 sereno Sereno 1 -3 74 1026 9 S 7.4
Ieri h: 18:50 sereno Sereno 1 -4 69 1026 10 S/SE 9.3
Ieri h: 18:20 sereno Sereno 2 -4 64 1026 10 S/SE 13
Ieri h: 17:50 sereno Sereno 2 -4 64 1026 10 S/SE 11.1
Ieri h: 17:20 sereno Sereno 2 -4 64 1026 10 E/SE 13
Ieri h: 16:50 sereno Sereno 2 -5 59 1026 10 E 9.3
Ieri h: 16:20 sereno Sereno 3 -6 51 1026 10 E 13
Ieri h: 15:50 coperto_pioggia Pioggia Debole 4 -5 51 1026 10 E 13